Tracking 29892 objects as of 21-Nov-2024
HD Live streaming from Space Station
objects crossing your sky now

STARLINK-4358

Track STARLINK-4358 now!
10-day predictions
STARLINK-4358 is classified as:


NORAD ID: 53225
Int'l Code: 2022-084AN
Perigee: 569.1 km
Apogee: 571.3 km
Inclination: 97.7 °
Period: 95.9 minutes
Semi major axis: 6941 km
RCS: Unknown
Launch date: July 22, 2022
Source: United States (US)
Launch site: AIR FORCE WESTERN TEST RANGE (AFWTR)
Your satellite tracking list
Your tracking list is empty




NASA's NSSDC Master Catalog

Two Line Element Set (TLE):
1 53225U 22084AN  24325.62719842  .00001792  00000-0  14405-3 0  9994
2 53225  97.6561  24.2117 0001598  91.0814 269.0593 15.01256475128197
Source of the keplerian elements: AFSPC